Wind_Speed
12 12 11 10 10 10 9 9 9 9 8 8 7 7 6 6 5 4 3 3 2 2 2 2 2 2 2 2 3 3 4 4 4 5 5 4 6 6 6 6 6 5 4
12 12 11 10 10 10 10 10 9 9 8 7 7 7 6 6 5 5 4 4 3 3 3 2 1 1 2 2 3 3 3 3 3 3 4 5 5 6 6 6 6 5 4
12 12 11 11 10 10 10 10 10 9 8 7 7 7 6 6 6 5 5 4 3 3 3 2 2 1 2 2 2 2 2 2 2 3 4 5 5 6 7 7 7 6 6
12 11 10 10 10 11 11 10 10 9 8 7 7 7 7 7 6 6 5 5 3 1 1 2 1 1 1 1 1 2 2 2 3 4 5 5 5 5 6 6 7 7 6
12 11 11 11 11 10 10 10 10 9 8 7 7 7 6 7 7 6 6 5 3 1 0 1 1 1 1 1 2 2 2 3 4 4 4 5 6 6 5 6 6 6 7
11 11 10 11 10 10 10 9 9 9 8 8 7 7 7 7 7 6 5 4 3 2 2 1 0 1 1 2 2 2 2 3 4 5 5 6 7 6 6 6 6 7 7
10 10 10 10 10 10 10 10 9 9 9 8 8 7 7 7 7 7 6 4 3 3 2 2 1 1 2 2 2 2 3 3 4 5 5 5 6 7 7 7 7 7 7
10 9 9 10 10 10 10 9 9 8 8 8 7 7 7 7 7 7 6 4 3 3 2 3 2 0 1 2 2 2 3 3 3 4 5 5 5 6 6 7 7 7 7
10 9 9 9 9 9 9 9 8 8 8 7 7 7 7 6 6 6 6 4 3 3 2 2 2 1 1 2 2 3 3 3 4 4 4 5 5 5 6 6 7 7 7
10 10 9 8 8 8 8 8 8 8 8 7 7 7 6 6 5 5 5 5 4 3 2 1 1 2 1 1 2 3 3 3 4 4 4 5 5 6 6 6 6 7 7
10 9 9 8 7 7 7 7 7 8 8 7 6 6 6 5 5 5 5 5 4 3 2 1 2 2 2 2 2 2 2 3 3 3 4 4 5 6 6 6 6 6 6
10 9 8 8 7 7 6 6 6 7 8 7 7 6 5 5 4 4 4 4 4 3 2 2 2 3 3 3 3 3 3 3 4 4 4 4 5 6 6 6 6 6 6
9 8 8 8 7 6 6 5 5 6 7 7 6 6 5 5 4 5 4 4 4 4 3 3 3 3 4 4 4 4 4 4 4 4 4 5 5 6 6 6 6 6 6
8 8 8 7 7 6 5 4 4 5 6 7 6 5 5 4 5 5 5 5 4 4 4 4 4 4 4 4 4 5 4 4 5 5 5 4 4 5 6 7 7 6 6
8 8 7 6 6 6 4 4 4 5 6 5 5 5 5 5 5 5 5 5 5 5 4 4 4 4 4 4 4 4 5 5 5 5 5 5 5 5 6 6 6 6 6
7 8 7 6 6 5 4 4 4 4 5 5 5 5 5 5 5 5 5 5 5 5 4 4 4 4 4 4 4 4 5 5 5 6 6 6 6 6 6 6 6 6 7
7 7 7 6 6 5 5 4 4 4 5 5 5 5 5 5 5 5 5 5 5 5 4 4 4 4 5 5 5 5 5 5 6 6 6 6 6 7 7 6 6 6 6
7 8 7 6 6 6 6 5 5 5 5 5 5 5 5 5 6 6 5 5 5 4 4 4 5 5 5 5 5 5 5 5 5 6 6 6 7 7 7 6 7 6 7
9 8 8 7 7 6 6 6 7 5 5 5 6 5 5 6 6 6 6 6 5 5 4 5 5 6 6 6 6 5 5 5 6 6 6 6 7 7 7 7 7 7 7
10 9 9 8 8 8 7 8 7 6 5 5 5 5 6 6 6 7 7 7 6 6 5 6 6 7 6 6 6 6 6 6 6 7 6 6 6 7 7 7 7 7 8
10 10 10 9 9 8 8 8 7 6 6 6 6 6 6 6 6 7 7 7 7 7 7 7 7 7 7 7 7 8 7 7 7 7 7 6 7 7 7 7 7 7 7
11 11 11 11 10 9 9 8 8 7 7 7 7 7 7 7 7 7 8 8 8 8 8 8 8 8 7 7 8 8 8 8 8 8 8 7 7 7 6 7 6 7 7
12 12 12 11 11 10 10 9 8 8 8 8 8 8 8 8 8 8 8 8 8 9 9 9 9 8 8 8 8 8 8 9 9 9 9 8 7 8 8 9 8 8 8
12 12 12 12 11 11 10 10 10 9 9 9 9 9 8 9 9 9 9 9 9 9 9 9 9 9 9 9 9 9 9 9 9 9 9 8 8 9 9 10 9 9 9
13 14 13 12 12 11 11 11 11 10 10 10 10 10 9 9 9 9 10 10 10 10 10 10 10 10 10 10 10 9 9 9 9 9 9 9 10 10 11 11 10 11 11
15 15 14 13 12 11 11 11 11 10 10 11 11 10 10 10 10 11 10 11 11 11 10 10 10 11 11 11 11 11 10 10 10 10 10 10 10 10 11 11 11 12 13
Wind_Direction
15 17 18 20 23 26 29 32 33 33 35 34 31 30 27 26 27 25 12 359 351 330 303 287 281 269 269 266 246 241 246 243 247 242 239 233 234 225 221 223 225 226 226
15 16 18 20 22 25 28 30 30 31 34 34 33 31 26 23 22 14 10 359 351 332 315 301 284 260 258 262 252 237 236 236 246 239 238 241 240 232 226 231 227 222 217
15 16 18 20 23 25 27 28 28 29 32 34 32 29 22 19 17 11 8 358 344 324 327 315 269 238 252 267 275 251 232 217 230 227 232 234 231 228 227 228 231 231 231
13 15 18 21 23 25 25 26 28 26 26 27 26 24 19 18 17 11 5 2 354 328 300 329 287 238 248 260 283 278 279 250 231 229 222 222 223 227 231 233 238 240 235
10 14 17 20 21 23 24 25 26 26 24 23 21 22 22 19 16 13 10 14 28 38 332 322 6 203 228 259 277 282 291 280 244 235 226 222 227 230 231 230 234 235 233
4 8 12 18 21 23 25 25 23 24 22 18 16 16 17 13 10 11 12 18 21 18 31 45 143 163 251 266 277 282 286 290 266 254 243 229 227 228 233 234 231 228 229
1 3 8 15 20 22 24 25 23 23 21 16 12 11 12 12 11 12 15 14 13 11 10 20 35 225 246 258 274 289 293 289 274 256 244 243 228 226 228 228 233 231 226
360 2 6 13 20 21 19 19 18 17 14 14 12 10 10 11 10 10 13 10 10 23 30 32 18 333 268 263 269 280 285 281 277 255 240 242 238 237 233 233 233 233 228
359 2 4 10 17 18 18 16 16 13 11 10 9 9 9 12 11 11 14 12 8 17 27 26 357 326 313 272 270 272 271 271 275 260 241 238 241 242 243 246 236 232 230
355 0 4 8 12 14 14 14 14 10 9 6 5 7 7 9 10 8 8 9 10 19 17 9 341 320 295 261 241 246 256 266 268 253 249 254 247 243 249 246 240 235 235
349 353 359 2 3 4 6 9 12 10 9 5 3 4 3 3 5 3 3 2 6 17 20 336 320 321 317 297 273 286 264 250 260 260 264 263 249 245 245 247 244 238 238
343 346 349 353 353 356 1 4 7 9 7 4 359 357 354 353 358 353 351 350 354 355 342 325 312 308 308 297 294 296 272 267 270 273 270 262 256 250 247 251 255 248 245
338 342 345 349 349 349 354 359 6 10 8 8 6 3 354 351 348 344 339 333 332 330 320 315 306 309 304 291 280 282 290 284 281 278 278 268 259 256 260 257 257 257 258
334 339 343 343 347 350 352 357 6 11 7 8 12 8 3 357 350 342 338 331 324 318 310 304 304 304 304 294 274 272 283 288 288 289 288 275 266 264 264 266 265 263 268
331 334 338 338 341 344 345 352 357 8 5 6 8 4 0 359 358 355 349 340 324 316 311 305 309 313 320 315 294 283 283 289 291 293 293 285 272 269 267 270 265 260 261
329 330 335 336 336 338 339 343 353 356 355 358 357 356 356 353 353 356 353 342 329 320 316 311 309 303 309 313 308 297 290 289 289 285 283 277 269 270 270 269 268 268 263
326 327 331 326 322 318 316 321 331 337 340 348 348 348 346 344 345 344 341 338 330 323 313 304 303 301 301 302 302 299 294 289 287 291 284 279 271 269 269 270 273 272 264
321 321 322 321 316 313 310 306 313 324 328 332 334 337 337 334 335 334 328 331 332 326 314 304 298 292 290 291 294 290 285 291 296 290 286 274 271 270 268 272 271 263 265
313 315 315 312 311 311 310 305 308 313 318 321 325 330 327 326 327 326 322 322 321 319 309 302 295 294 288 292 295 287 283 287 294 290 285 278 274 269 266 273 268 262 261
306 307 306 301 299 300 306 304 301 305 307 310 312 317 320 320 321 319 318 314 309 306 301 294 293 292 289 288 290 287 286 289 293 283 284 284 273 264 265 269 267 262 257
301 301 298 293 290 292 295 299 293 295 296 295 301 308 313 314 315 314 314 310 303 297 295 292 289 289 284 283 285 286 287 294 291 287 285 288 272 266 269 269 267 265 260
296 293 292 293 291 287 287 290 289 289 290 289 292 297 299 306 314 312 306 304 305 302 300 296 292 288 282 283 286 286 283 289 294 290 283 288 279 271 271 270 273 269 267
290 287 285 287 287 285 285 283 284 287 289 292 292 295 293 296 299 305 301 298 301 302 301 296 293 288 285 285 286 286 284 283 288 291 285 284 278 271 274 272 274 275 274
280 281 280 284 285 284 282 279 283 285 284 284 285 288 289 291 295 296 297 297 293 295 299 293 290 288 285 286 286 285 282 284 284 288 285 281 280 278 279 275 271 278 281
273 274 273 276 278 282 281 276 276 283 283 283 283 288 291 289 290 293 294 293 293 294 295 294 290 287 284 284 285 284 284 287 289 287 285 284 282 278 276 271 274 278 282
271 273 269 269 272 278 282 273 271 277 282 282 283 286 285 288 290 294 292 290 292 292 291 290 288 286 286 284 282 281 283 286 286 286 285 286 284 282 276 274 273 276 280
Height
5883 5882 5880 5879 5877 5876 5875 5874 5874 5873 5873 5872 5872 5872 5872 5872 5872 5872 5872 5873 5873 5873 5873 5874 5874 5874 5874 5875 5875 5875 5876 5876 5876 5877 5877 5878 5878 5879 5880 5880 5881 5882 5883
5884 5882 5881 5879 5878 5877 5876 5875 5874 5874 5873 5873 5873 5872 5872 5872 5872 5872 5872 5872 5872 5872 5872 5873 5873 5873 5874 5874 5874 5875 5875 5875 5876 5876 5876 5877 5878 5878 5879 5879 5880 5881 5882
5884 5883 5881 5880 5878 5877 5876 5875 5875 5874 5874 5873 5873 5873 5873 5872 5872 5872 5872 5871 5871 5871 5872 5872 5872 5873 5873 5874 5874 5874 5874 5875 5875 5875 5876 5876 5877 5878 5878 5879 5880 5881 5882
5885 5883 5882 5880 5879 5878 5876 5876 5875 5874 5874 5873 5873 5873 5872 5872 5872 5872 5871 5870 5870 5870 5871 5871 5872 5872 5873 5873 5874 5874 5874 5874 5875 5875 5875 5876 5876 5877 5878 5879 5879 5880 5881
5885 5884 5882 5881 5879 5878 5877 5876 5875 5875 5874 5874 5873 5873 5872 5872 5872 5871 5871 5870 5869 5870 5871 5871 5871 5871 5872 5873 5873 5873 5874 5874 5874 5874 5874 5875 5875 5876 5877 5878 5878 5879 5880
5885 5884 5882 5881 5880 5878 5877 5877 5876 5875 5874 5874 5873 5873 5872 5872 5872 5871 5871 5871 5870 5871 5871 5871 5871 5871 5871 5872 5872 5873 5873 5873 5873 5873 5873 5874 5874 5876 5876 5877 5877 5878 5879
5885 5884 5883 5881 5880 5879 5878 5877 5876 5875 5875 5874 5873 5873 5872 5872 5872 5871 5871 5871 5871 5871 5871 5871 5871 5871 5871 5871 5872 5872 5872 5872 5872 5872 5873 5873 5874 5874 5875 5876 5876 5877 5878
5885 5884 5883 5881 5880 5879 5878 5877 5877 5876 5875 5874 5874 5873 5873 5872 5872 5871 5871 5871 5870 5870 5871 5871 5871 5871 5871 5871 5871 5872 5872 5872 5872 5872 5872 5872 5873 5874 5874 5875 5875 5876 5877
5886 5884 5883 5881 5880 5879 5878 5878 5877 5876 5875 5875 5874 5873 5873 5872 5872 5871 5871 5871 5870 5870 5870 5870 5870 5871 5870 5871 5871 5871 5871 5871 5871 5871 5871 5871 5872 5873 5873 5874 5874 5875 5876
5886 5884 5883 5881 5880 5879 5879 5878 5877 5876 5875 5875 5874 5873 5873 5872 5872 5871 5871 5870 5870 5870 5870 5870 5870 5870 5870 5870 5870 5870 5870 5870 5870 5870 5870 5871 5871 5872 5872 5873 5873 5874 5875
5885 5884 5883 5881 5880 5879 5879 5878 5877 5876 5875 5874 5874 5873 5872 5872 5871 5871 5870 5870 5870 5870 5870 5869 5869 5869 5869 5870 5870 5870 5870 5870 5870 5870 5870 5870 5870 5871 5871 5872 5872 5873 5873
5885 5884 5883 5881 5880 5879 5878 5878 5877 5876 5875 5874 5873 5872 5872 5872 5871 5871 5870 5870 5869 5869 5869 5869 5869 5869 5869 5869 5869 5869 5869 5869 5870 5870 5870 5869 5869 5870 5870 5871 5871 5872 5872
5885 5883 5882 5881 5880 5879 5878 5877 5877 5876 5875 5874 5873 5872 5872 5871 5871 5870 5870 5869 5869 5869 5869 5869 5868 5868 5868 5868 5868 5868 5869 5869 5869 5869 5869 5868 5868 5869 5869 5870 5870 5870 5871
5884 5883 5882 5881 5880 5878 5878 5877 5876 5875 5875 5874 5873 5872 5871 5871 5871 5870 5869 5869 5868 5868 5868 5868 5868 5868 5867 5867 5867 5867 5868 5868 5868 5868 5868 5868 5867 5868 5868 5868 5869 5869 5869
5883 5882 5881 5880 5879 5878 5877 5877 5876 5875 5874 5873 5873 5872 5871 5870 5870 5869 5868 5868 5867 5867 5867 5867 5867 5867 5866 5866 5866 5866 5867 5867 5867 5867 5867 5867 5867 5867 5867 5867 5868 5868 5868
5882 5881 5881 5879 5878 5877 5877 5876 5876 5875 5874 5873 5872 5871 5871 5870 5869 5868 5868 5867 5866 5866 5865 5865 5865 5865 5865 5865 5865 5865 5865 5865 5865 5866 5866 5866 5866 5866 5866 5866 5867 5867 5867
5881 5880 5880 5879 5878 5877 5877 5876 5875 5874 5873 5872 5871 5870 5870 5869 5868 5868 5867 5866 5865 5865 5865 5865 5864 5864 5864 5864 5864 5864 5864 5864 5864 5864 5864 5864 5864 5865 5865 5865 5866 5866 5866
5879 5879 5878 5878 5877 5876 5875 5875 5874 5873 5872 5871 5870 5869 5869 5868 5868 5867 5866 5865 5865 5864 5864 5864 5864 5863 5863 5863 5863 5863 5863 5863 5863 5863 5863 5863 5863 5863 5863 5864 5864 5864 5864
5878 5877 5876 5876 5875 5875 5874 5873 5872 5872 5871 5870 5870 5869 5868 5867 5867 5866 5865 5864 5864 5863 5863 5863 5862 5862 5862 5862 5862 5861 5862 5862 5862 5861 5861 5861 5861 5861 5862 5862 5862 5862 5862
5876 5875 5875 5874 5873 5873 5872 5872 5871 5870 5869 5869 5868 5868 5867 5866 5865 5865 5864 5863 5863 5862 5862 5862 5862 5861 5861 5861 5861 5860 5860 5860 5860 5860 5860 5859 5859 5860 5860 5860 5860 5860 5860
5874 5873 5873 5872 5872 5871 5870 5869 5869 5868 5868 5867 5867 5866 5866 5865 5864 5864 5863 5862 5862 5861 5861 5860 5860 5860 5859 5859 5859 5859 5859 5859 5858 5858 5858 5858 5858 5858 5858 5858 5858 5858 5859
5871 5871 5870 5870 5869 5869 5868 5868 5867 5866 5866 5865 5865 5864 5864 5863 5862 5862 5861 5861 5860 5860 5860 5859 5858 5858 5858 5858 5858 5858 5858 5858 5857 5856 5856 5856 5856 5856 5857 5857 5856 5856 5857
5869 5868 5868 5867 5867 5866 5866 5865 5864 5864 5864 5863 5862 5862 5861 5861 5860 5860 5859 5859 5858 5858 5858 5857 5857 5856 5856 5856 5856 5857 5856 5856 5855 5855 5855 5855 5855 5855 5855 5855 5855 5855 5855
5866 5865 5865 5865 5864 5864 5863 5862 5861 5861 5861 5860 5860 5859 5858 5858 5858 5857 5857 5857 5857 5856 5856 5855 5855 5855 5855 5854 5854 5854 5854 5854 5854 5854 5853 5853 5853 5853 5853 5853 5853 5853 5852
5862 5862 5862 5862 5861 5861 5860 5859 5859 5858 5858 5858 5857 5857 5856 5856 5855 5855 5855 5855 5854 5854 5854 5853 5853 5853 5853 5853 5852 5852 5852 5852 5852 5852 5851 5851 5851 5850 5850 5850 5850 5850 5850
5857 5858 5858 5858 5858 5857 5857 5856 5856 5856 5855 5855 5854 5854 5854 5853 5853 5853 5853 5852 5852 5852 5851 5851 5851 5851 5851 5850 5850 5850 5850 5850 5850 5849 5849 5848 5848 5848 5848 5848 5848 5847 5847